BEIDOU-2 IGSO-2

Last updated on Thu Aug 13 2026 00:02:58 GMT+0000 (Coordinated Universal Time)

1 37256U 10068A 26224.51008913 -.00000172 00000+0 00000+0 0 9990 2 37256 47.4460 271.1262 0057195 214.5762 126.6415 1.00263734 57356
UTC large
Height (km)
Speed (km/s)
/
Latitude / Longitude
Inclination (degrees)
Orbital Period (minutes)
Azimuth
Elevation
Range (km)
Doppler Factor

Next 0 passes for location: London (51.5072 / 0.1276)

No passes found over London.
BEIDOU-2 IGSO-2